Hourly Weather Roundup
Issued by NWS Central Illinois

Home | Current Version | Previous Version | Text Only | Print | Product List | Glossary On
Versions: 1 2 3 4 5 6 7 8 9 10 11 12 13 14 15 16 17 18 19 20 21 22 23 24 25 26 27 28 29 30 31 32 33 34 35 36 37 38 39 40 41 42 43 44 45 46 47 48 49 50
000
NZUS43 KILX 200510
HWRILX

Area Weather Roundup
National Weather Service Lincoln IL
1100 PM CST MON FEB 19 2018

NOTE:  "FAIR" indicates few or no clouds below 12,000 feet, with
       no sigificant weather and/or obstructions to visibility.


CITY           SKY/WX    TMP DP  RH WIND       PRES   REMARKS
Bloomington    LGT RAIN  62  60  93 S32G41    29.83R
Champaign      CLOUDY    61  58  90 S25       29.89R
Danville       CLOUDY    62  56  79 S23G35    29.87S
Decatur        LGT RAIN  64  61  90 S23G33    29.89R
Effingham      CLOUDY    66  58  77 SE13G20   29.96S
Flora          CLOUDY    64  57  77 S12       29.98F
Galesburg      LGT RAIN  45  45 100 NW6       29.82R
Jacksonville   CLOUDY    62  58  88 S17G26    29.84R
Lacon          DRIZZLE   57  57 100 SE5       29.80F
Lawrenceville  MOCLDY    64  57  78 S16       30.01R
Litchfield     LGT RAIN  63  60  91 SW17      29.93R
$$


CITY           SKY/WX    TMP DP  RH WIND       PRES   REMARKS
Lincoln        RAIN      63  62  97 S16G29    29.84F
Macomb         RAIN      50  49  97 NW10      29.83R
Mattoon        CLOUDY    62  56  80 S14G25    29.93R
Mt Carmel AP   MOCLDY    64  58  78 S14       30.01S
Olney-Noble AP MOCLDY    63  58  85 S12       29.99F
Paris AP       FAIR      62  57  83 S25G35    29.94F
Peoria         LGT RAIN  61  58  90 SW16G28   29.80R
Pontiac        RAIN      62  62  98 S26G35    29.84S
Rantoul        LGT RAIN  63  60  90 S17G25    29.89R
Robinson       FAIR      64  57  78 S16G22    30.00R
Springfield    RAIN      63  61  93 S26G33    29.84F
Taylorville    LGT RAIN  63  61  94 S18G26    29.90R
$$

...REGIONAL REPORTS...


CITY           SKY/WX    TMP DP  RH WIND       PRES   REMARKS
Chicago O`Hare LGT RAIN  59  56  89 S16       29.81S
Kankakee       RAIN      59  58  97 S18G29    29.84S
Moline         RAIN      43  42  97 W7        29.79S FOG
Mount Sterling LGT RAIN  60  58  92 SW15G24   29.81R
Mount Vernon   MOCLDY    65  57  75 S10       29.98F
Pittsfield     RAIN      62  59  93 S13G25    29.84R
Quincy         LGT RAIN  53  53 100 SW5       29.83R FOG
Rockford       LGT RAIN  49  49 100 S13       29.79R VSB 1/8
$$


CITY           SKY/WX    TMP DP  RH WIND       PRES   REMARKS
Burlington     LGT RAIN  40  38  93 NW7       29.81S FOG
Cedar Rapids   CLOUDY    34  33  96 W9        29.79S FOG     WCI  27
Des Moines     FLURRIES  28  26  92 N8        29.80F WCI  20
Kirksville     LGT RAIN  38  38 100 CALM      29.83R FOG
Ottumwa        CLOUDY    32  31  96 NW7       29.82R FOG     WCI  26
St Louis       LGT RAIN  66  60  81 S10       29.89R
$$


CITY           SKY/WX    TMP DP  RH WIND       PRES   REMARKS
Terre Haute    CLOUDY    64  56  75 S17       29.98R
Evansville     FAIR      66  58  75 S13       30.03S
Indianapolis   MOCLDY    64  55  72 S17       29.99S
Lafayette      CLOUDY    62  56  80 S15G25    29.90F
Madison        DRIZZLE   34  34 100 N3        29.78R FOG
Milwaukee      DRZL/FOG  37  36  96 CALM      29.78S VSB 1
$$






USA.gov is the U.S. government's official web portal to all federal, state and local government web resources and services.